カタログに戻る

STARLINK-36551

運用中通信VLEO
NORAD 67493·PAYLOAD·🇺🇸 United States

打ち上げ Jan 18, 2026 から Cape Canaveral Space Force Station

Loading…

次のパス (今後24時間)

TLE

最新Source: CelesTrak SupGP

元期: Sep 14, 2026, 23:12 UTC

1 67493C 26012A   26257.96715278 -.00001318  00000+0 -47735-4 0  2578
2 67493  43.0018 325.8450 0001415 265.1973 146.2626 15.27580117    13

AllMySatでSTARLINK-36551をリアルタイム追跡

Download on the App Store